Dewpoint
27 28 27 36 38 39 42 41 46 52 56 54 54 56 57 60 61 59 56 55 56 56 59 61 61 62 63 65 67 69 70 71 70 68 67 66 65 67 68 69 72 73 71 71
29 24 30 32 34 35 41 40 47 49 50 49 52 53 57 60 60 60 55 56 56 56 57 60 62 62 63 65 67 69 70 71 70 68 69 67 67 65 66 69 72 70 69 71
21 25 29 30 29 30 32 34 42 42 49 47 46 51 55 59 60 61 58 55 55 56 56 59 61 62 63 65 67 68 70 72 72 72 70 73 76 69 66 69 68 70 70 70
24 27 29 29 29 30 29 31 40 42 42 35 45 43 47 56 58 59 59 56 55 55 56 57 59 61 63 64 66 68 70 72 72 74 72 72 67 64 64 66 67 69 70 71
22 24 23 24 27 29 31 38 42 42 42 41 43 40 47 54 57 58 59 58 55 55 54 56 58 61 62 64 65 67 71 72 70 73 73 68 68 65 66 66 72 72 73 72
19 21 22 21 28 24 40 42 44 45 42 35 40 40 41 52 51 58 59 58 57 54 53 55 57 60 61 63 64 65 69 72 71 73 71 71 69 69 65 67 68 67 66 68
19 18 24 33 30 27 38 38 36 34 33 32 40 43 38 43 50 52 56 57 57 57 53 54 57 59 62 63 64 64 69 71 72 72 70 70 71 71 72 73 69 68 65 65
16 16 27 36 31 30 31 30 26 27 26 32 41 38 39 43 46 51 52 55 58 57 55 54 58 60 62 63 65 65 68 71 71 71 72 74 73 70 65 68 64 65 65 65
23 18 25 36 36 37 33 35 28 31 32 31 33 38 41 42 45 49 49 54 57 56 54 55 57 60 61 63 65 66 68 71 71 70 72 72 72 71 69 70 71 67 69 66
30 25 21 27 36 38 39 36 30 28 35 29 34 37 35 40 46 46 51 50 55 56 55 55 58 61 61 62 64 66 68 70 70 69 70 70 71 73 72 73 71 71 71 71
30 28 27 28 32 30 34 35 34 37 43 34 29 32 45 47 53 51 52 54 55 57 57 56 58 60 63 62 64 65 67 69 70 70 69 70 70 70 71 70 71 72 72 72
33 26 25 23 29 32 31 31 34 30 32 29 30 30 53 56 56 54 51 54 57 57 56 58 57 59 61 64 65 66 67 68 69 70 70 70 70 71 69 70 70 71 73 75
33 27 25 24 25 32 31 34 32 27 24 30 24 30 53 56 57 57 53 55 61 60 58 59 61 60 61 64 66 67 68 68 68 69 69 70 70 70 70 70 71 71 73 73
40 27 29 23 30 31 32 35 37 29 23 22 22 25 42 52 56 57 58 60 61 60 60 60 60 61 63 65 67 68 68 69 69 69 70 71 71 71 70 71 72 72 73 74
31 29 30 28 27 29 29 35 35 35 30 31 30 34 33 49 55 58 59 60 60 60 59 60 59 60 65 66 67 68 69 70 69 70 71 72 73 72 72 72 73 73 73 76
33 31 31 28 26 30 29 32 36 37 39 38 39 43 52 55 57 58 59 60 61 61 60 60 61 63 64 66 68 68 70 70 71 71 71 72 73 74 73 73 73 73 73 74
32 26 30 24 32 33 33 32 33 34 42 41 38 49 54 55 56 58 59 60 61 63 62 61 62 63 66 66 68 68 69 71 72 72 72 72 73 74 75 73 73 74 74 74
31 35 31 26 31 28 32 42 40 41 41 45 47 50 54 56 58 59 59 60 60 61 63 65 65 66 68 65 68 70 71 72 72 72 72 73 73 73 74 73 73 74 76 75
39 37 31 29 24 26 30 35 40 41 38 45 49 54 55 57 58 58 59 60 60 61 62 67 68 68 69 69 70 71 71 71 71 71 72 73 73 73 73 73 73 73 74 74
38 40 35 31 31 28 37 41 43 44 39 43 51 54 56 56 52 56 59 59 60 61 62 66 67 67 69 71 71 71 70 71 71 71 71 71 72 69 70 69 70 70 70 69
33 36 32 30 33 32 37 41 45 39 41 51 52 54 56 55 58 59 59 59 60 61 62 65 65 65 65 68 69 67 67 67 69 69 70 70 69 69 70 70 70 70 67 64
31 30 29 33 32 30 42 42 42 48 52 52 55 54 56 59 58 58 58 59 59 60 61 63 64 65 65 67 68 67 67 68 69 69 69 69 70 69 67 65 64 62 62 59
33 34 36 33 32 45 46 46 48 50 52 54 54 56 58 56 57 58 58 59 59 60 60 61 62 63 65 66 67 65 65 67 67 68 67 66 65 65 67 64 63 61 60 58
40 44 37 42 37 41 44 46 50 50 50 52 55 57 56 56 57 58 58 59 60 59 60 60 60 60 61 63 63 64 64 67 65 63 61 62 60 57 58 61 63 62 61 60
37 45 41 39 40 42 46 49 50 51 52 54 57 56 56 56 57 57 57 59 59 60 60 60 60 59 60 62 61 61 61 62 62 60 58 56 55 53 50 50 51 53 51 53
41 37 36 31 37 41 49 50 53 53 53 54 56 56 56 56 56 57 57 56 58 58 59 59 59 58 59 61 61 61 60 59 57 56 56 56 56 55 53 53 52 45 45 44
Lifted_Index
5 4 2 1 0 -1 -1 -2 -2 -2 -2 -1 -0 -0 -0 -0 -0 -1 -1 -2 -2 -2 -3 -3 -3 -3 -3 -3 -3 -3 -4 -4 -4 -4 -4 -3 -3 -4 -4 -5 -5 -5 -5 -5
4 4 2 2 1 -0 -1 -2 -2 -2 -1 -1 -1 -1 -1 -0 -0 -1 -1 -1 -2 -2 -2 -3 -3 -3 -3 -3 -3 -3 -3 -4 -4 -4 -4 -4 -4 -4 -4 -5 -5 -5 -5 -5
4 4 3 2 1 0 -1 -1 -2 -2 -1 -1 -1 -1 -0 -0 -0 -1 -1 -1 -1 -1 -2 -2 -2 -2 -3 -3 -3 -3 -3 -4 -4 -4 -4 -4 -4 -3 -3 -4 -4 -5 -5 -5
4 4 3 2 1 0 -1 -1 -2 -2 -2 -1 -1 -1 -1 -1 -1 -1 -1 -1 -1 -1 -1 -2 -2 -2 -2 -3 -3 -3 -3 -4 -4 -4 -4 -3 -3 -3 -3 -3 -4 -5 -5 -5
5 4 4 3 2 1 -1 -1 -2 -2 -2 -2 -1 -1 -1 -1 -1 -1 -1 -1 -1 -1 -1 -1 -2 -2 -2 -2 -3 -3 -3 -4 -4 -4 -3 -3 -2 -2 -2 -3 -4 -4 -5 -5
4 4 4 3 2 1 -1 -2 -3 -3 -3 -2 -2 -2 -1 -1 -1 -1 -1 -1 -1 -1 -1 -1 -1 -2 -2 -2 -2 -3 -3 -3 -3 -3 -3 -3 -2 -3 -3 -3 -3 -4 -4 -4
4 4 3 2 1 1 -1 -2 -3 -3 -2 -2 -2 -2 -1 -1 -1 -1 -1 -1 -1 -1 -1 -1 -1 -2 -2 -2 -2 -2 -3 -3 -3 -3 -3 -3 -3 -3 -3 -3 -3 -3 -3 -3
2 2 2 1 0 -0 -1 -2 -2 -2 -2 -2 -2 -2 -1 -1 -1 -1 -1 -1 -1 -1 -0 -1 -1 -2 -2 -3 -2 -2 -3 -3 -3 -3 -3 -3 -3 -3 -3 -3 -3 -3 -3 -3
1 1 1 0 -1 -1 -1 -2 -1 -1 -1 -2 -2 -1 -1 -1 -1 -1 -1 -1 -1 -1 -0 -1 -1 -2 -2 -3 -3 -3 -3 -3 -3 -3 -3 -3 -3 -3 -3 -3 -3 -3 -3 -3
0 0 1 0 -1 -2 -2 -2 -2 -1 -1 -1 -1 -1 -1 -2 -1 -1 -0 -1 -1 -1 -1 -1 -1 -2 -2 -3 -3 -3 -3 -3 -3 -3 -3 -3 -3 -3 -3 -3 -3 -3 -3 -4
0 0 0 -0 -1 -1 -2 -2 -2 -2 -1 -1 -1 -2 -3 -4 -3 -2 0 0 -1 -1 -1 -1 -1 -2 -2 -2 -3 -3 -3 -4 -4 -4 -3 -3 -3 -3 -3 -3 -3 -4 -4 -4
0 -0 -0 -1 -1 -1 -2 -2 -2 -2 -1 -1 -1 -2 -4 -5 -5 -3 -1 1 -0 -1 -1 -1 -1 -2 -2 -2 -3 -3 -3 -4 -4 -4 -3 -3 -4 -4 -3 -3 -4 -4 -5 -5
1 0 -0 -1 -1 -1 -2 -2 -2 -2 -1 -1 -1 -2 -4 -6 -6 -5 -3 -1 -0 -1 -1 -1 -1 -2 -2 -2 -3 -3 -4 -4 -4 -4 -4 -4 -4 -4 -4 -4 -4 -4 -5 -5
1 1 0 -0 -0 -1 -2 -3 -3 -2 -1 -1 -1 -1 -3 -5 -6 -6 -5 -4 -2 -1 -2 -2 -2 -2 -2 -3 -3 -4 -4 -4 -4 -4 -4 -4 -4 -4 -4 -4 -4 -5 -5 -5
1 1 1 1 0 -0 -1 -3 -3 -3 -2 -2 -2 -2 -3 -5 -6 -6 -6 -5 -4 -3 -3 -3 -2 -2 -3 -3 -3 -4 -4 -4 -4 -4 -5 -5 -5 -5 -5 -5 -5 -5 -5 -5
1 1 1 1 0 -1 -1 -3 -3 -4 -4 -3 -3 -3 -4 -5 -5 -5 -5 -5 -5 -5 -4 -4 -3 -3 -3 -4 -4 -4 -4 -4 -4 -5 -5 -5 -5 -5 -5 -5 -5 -5 -5 -5
2 2 1 1 0 -1 -2 -3 -3 -4 -4 -4 -4 -5 -5 -5 -4 -4 -4 -4 -4 -5 -5 -5 -5 -4 -4 -4 -4 -4 -4 -5 -5 -5 -5 -5 -5 -5 -5 -5 -5 -5 -5 -5
1 1 1 1 -0 -1 -2 -2 -3 -4 -4 -4 -5 -5 -5 -5 -4 -3 -3 -3 -4 -4 -5 -5 -5 -5 -4 -4 -4 -4 -5 -5 -5 -5 -5 -5 -5 -5 -5 -5 -5 -5 -5 -5
0 0 0 -0 -1 -1 -2 -2 -3 -3 -3 -4 -5 -5 -5 -5 -4 -3 -3 -3 -4 -4 -4 -4 -5 -5 -5 -4 -4 -5 -5 -5 -5 -5 -5 -5 -5 -4 -4 -4 -4 -4 -4 -3
-0 -0 -1 -1 -1 -1 -2 -2 -3 -3 -3 -4 -5 -5 -5 -5 -4 -4 -3 -3 -4 -4 -4 -4 -4 -5 -5 -5 -5 -5 -5 -5 -5 -5 -4 -4 -3 -3 -3 -2 -2 -2 -2 -1
-0 -0 -1 -1 -1 -1 -2 -3 -3 -3 -4 -5 -5 -5 -5 -4 -4 -3 -3 -3 -3 -4 -4 -4 -4 -4 -4 -5 -5 -4 -4 -4 -4 -4 -4 -3 -2 -1 -1 -1 -0 -0 -0 -0
0 -0 -1 -1 -1 -1 -2 -3 -3 -4 -5 -5 -6 -6 -5 -4 -3 -2 -2 -3 -3 -4 -4 -4 -4 -3 -3 -3 -3 -3 -3 -3 -3 -3 -3 -2 -1 -0 0 0 1 1 0 1
-0 -0 -1 -1 -1 -2 -2 -3 -3 -4 -5 -5 -5 -5 -4 -3 -3 -2 -2 -2 -3 -3 -4 -4 -3 -3 -2 -2 -2 -2 -2 -2 -2 -2 -1 -1 -0 0 1 1 2 1 1 1
-0 -1 -1 -1 -1 -1 -2 -3 -3 -4 -4 -5 -5 -5 -4 -3 -3 -2 -2 -2 -2 -3 -3 -3 -3 -3 -2 -2 -2 -2 -2 -2 -1 -1 -1 -0 -0 0 1 1 2 2 1 1
-0 -1 -1 -0 -0 -1 -2 -3 -4 -4 -5 -5 -5 -4 -4 -4 -3 -2 -2 -2 -2 -2 -2 -3 -3 -3 -3 -2 -2 -2 -2 -2 -2 -1 -1 -1 -1 -1 0 1 1 1 1 1
-0 -0 -0 0 0 -1 -2 -3 -4 -4 -5 -5 -5 -4 -4 -4 -3 -2 -2 -2 -2 -2 -2 -2 -2 -2 -2 -2 -2 -2 -2 -2 -2 -2 -2 -1 -1 -1 -0 0 0 -0 -0 0